カタログに戻る

STARLINK-5873

運用中通信VLEO
NORAD 56490·PAYLOAD·🇺🇸 United States

打ち上げ May 10, 2023 から Vandenberg Space Force Base

Loading…

次のパス (今後24時間)

TLE

最新Source: CelesTrak SupGP

元期: Sep 14, 2026, 21:24 UTC

1 56490C 23064AU  26257.89215278 -.00049086  00000+0 -41142-2 0  2572
2 56490  70.0016 347.5595 0003197 269.2060 300.9533 14.98349698    18

AllMySatでSTARLINK-5873をリアルタイム追跡

Download on the App Store